| time (UTC) | temp C | wind direction | speed KPH | gust KPH | rain 1hr cm | rain 24hr cm | rain mn cm | humidity % | barometer mb |
| 20260509123351 | 13 | 203 | 0.0 | 0.0 | 0.00 | 0.00 | 0.00 | 87 | 1012.8 |
| 20260509122746 | 12 | 203 | 0.0 | 0.0 | 0.00 | 0.00 | 0.00 | 90 | 1012.5 |
| 20260509122142 | 12 | 225 | 0.0 | 0.0 | 0.00 | 0.00 | 0.00 | 89 | 1012.5 |
| 20260509121510 | 12 | 180 | 0.0 | 0.0 | 0.00 | 0.00 | 0.00 | 91 | 1012.5 |
| 20260509120914 | 11 | 203 | 0.0 | 0.0 | 0.00 | 0.00 | 0.00 | 93 | 1012.8 |
| 20260509120320 | 11 | 203 | 0.0 | 0.0 | 0.00 | 0.00 | 0.00 | 94 | 1012.8 |
| 20260509115739 | 10 | 203 | 0.0 | 0.0 | 0.00 | 0.00 | 0.00 | 98 | 1012.8 |
| 20260509115122 | 10 | 225 | 0.0 | 0.0 | 0.00 | 0.00 | 0.00 | 99 | 1012.8 |
| 20260509113926 | 9 | 225 | 0.0 | 0.0 | 0.00 | 0.00 | 0.00 | 99 | 1012.8 |
| 20260509113325 | 8 | 203 | 0.0 | 0.0 | 0.00 | 0.00 | 0.00 | 99 | 1012.8 |
| 20260509112131 | 8 | 180 | 3.2 | 3.2 | 0.00 | 0.00 | 0.00 | 99 | 1012.8 |
| 20260509110934 | 8 | 180 | 0.0 | 1.6 | 0.00 | 0.00 | 0.00 | 99 | 1012.8 |
| 20260509110313 | 8 | 203 | 0.0 | 0.0 | 0.00 | 0.00 | 0.00 | 99 | 1012.8 |
| 20260509104545 | 8 | 338 | 1.6 | 1.6 | 0.00 | 0.00 | 0.00 | 99 | 1012.8 |
| 20260509103940 | 8 | 315 | 0.0 | 0.0 | 0.00 | 0.00 | 0.00 | 99 | 1012.8 |
| 20260509103314 | 7 | 270 | 0.0 | 0.0 | 0.00 | 0.00 | 0.00 | 99 | 1012.8 |
| 20260509102735 | 8 | 270 | 0.0 | 0.0 | 0.00 | 0.00 | 0.00 | 99 | 1012.8 |
| 20260509102123 | 7 | 248 | 0.0 | 0.0 | 0.00 | 0.00 | 0.00 | 99 | 1012.8 |
| 20260509101514 | 8 | 23 | 0.0 | 0.0 | 0.00 | 0.00 | 0.00 | 99 | 1012.8 |
| 20260509100920 | 8 | 315 | 0.0 | 0.0 | 0.00 | 0.00 | 0.00 | 99 | 1012.8 |
| 20260509100325 | 8 | 270 | 0.0 | 0.0 | 0.00 | 0.00 | 0.00 | 99 | 1012.5 |
| 20260509095736 | 8 | 248 | 0.0 | 0.0 | 0.00 | 0.00 | 0.00 | 99 | 1012.5 |
| 20260509095147 | 8 | 315 | 0.0 | 0.0 | 0.00 | 0.00 | 0.00 | 99 | 1012.5 |
| 20260509094533 | 8 | 270 | 0.0 | 0.0 | 0.00 | 0.00 | 0.00 | 99 | 1012.8 |
| 20260509093330 | 8 | 225 | 0.0 | 0.0 | 0.00 | 0.00 | 0.00 | 99 | 1012.8 |
| 20260509092117 | 8 | 315 | 0.0 | 0.0 | 0.00 | 0.00 | 0.00 | 99 | 1012.8 |
| 20260509090945 | 8 | 270 | 0.0 | 0.0 | 0.00 | 0.00 | 0.00 | 99 | 1012.8 |
| 20260509090350 | 8 | 270 | 0.0 | 0.0 | 0.00 | 0.00 | 0.00 | 99 | 1012.8 |
| 20260509085712 | 8 | 270 | 0.0 | 0.0 | 0.00 | 0.00 | 0.00 | 99 | 1012.8 |
| 20260509085139 | 8 | 338 | 0.0 | 0.0 | 0.00 | 0.00 | 0.00 | 99 | 1012.8 |
| 20260509084533 | 8 | 270 | 0.0 | 0.0 | 0.00 | 0.00 | 0.00 | 99 | 1012.8 |
| 20260509083918 | 8 | 23 | 0.0 | 0.0 | 0.00 | 0.00 | 0.00 | 99 | 1013.2 |
| 20260509083337 | 8 | 270 | 0.0 | 0.0 | 0.00 | 0.00 | 0.00 | 99 | 1012.8 |
| 20260509082748 | 8 | 270 | 0.0 | 0.0 | 0.00 | 0.00 | 0.00 | 99 | 1012.8 |
| 20260509080323 | 8 | 293 | 0.0 | 0.0 | 0.00 | 0.00 | 0.00 | 99 | 1013.2 |
| 20260509075754 | 8 | 270 | 0.0 | 0.0 | 0.00 | 0.00 | 0.00 | 99 | 1013.2 |
| 20260509075135 | 8 | 315 | 0.0 | 0.0 | 0.00 | 0.00 | 0.00 | 99 | 1013.2 |
| 20260509073323 | 8 | 270 | 0.0 | 0.0 | 0.00 | 0.00 | 0.00 | 99 | 1013.2 |
| 20260509072738 | 8 | 0 | 0.0 | 0.0 | 0.00 | 0.00 | 0.00 | 99 | 1013.2 |
| 20260509071519 | 8 | 315 | 0.0 | 0.0 | 0.00 | 0.00 | 0.00 | 99 | 1013.2 |
| 20260509070324 | 8 | 293 | 0.0 | 0.0 | 0.00 | 0.00 | 0.00 | 99 | 1013.2 |
| 20260509065751 | 7 | 270 | 0.0 | 0.0 | 0.00 | 0.00 | 0.00 | 99 | 1013.2 |
| 20260509064519 | 8 | 203 | 0.0 | 0.0 | 0.00 | 0.00 | 0.00 | 99 | 1012.8 |
| 20260509063914 | 7 | 225 | 0.0 | 0.0 | 0.00 | 0.00 | 0.00 | 99 | 1013.2 |
| 20260509063311 | 7 | 225 | 0.0 | 0.0 | 0.00 | 0.00 | 0.00 | 99 | 1013.2 |
| 20260509062719 | 8 | 225 | 0.0 | 0.0 | 0.00 | 0.00 | 0.00 | 99 | 1013.2 |
| 20260509062128 | 8 | 270 | 0.0 | 0.0 | 0.00 | 0.00 | 0.00 | 99 | 1013.2 |
| 20260509060912 | 8 | 293 | 0.0 | 0.0 | 0.00 | 0.00 | 0.00 | 99 | 1013.5 |
| 20260509060335 | 8 | 270 | 0.0 | 0.0 | 0.00 | 0.00 | 0.00 | 99 | 1013.5 |
| 20260509054513 | 8 | 338 | 0.0 | 0.0 | 0.00 | 0.00 | 0.00 | 99 | 1013.5 |
| 20260509053935 | 8 | 68 | 0.0 | 0.0 | 0.00 | 0.00 | 0.00 | 99 | 1013.5 |
| 20260509053347 | 8 | 225 | 0.0 | 0.0 | 0.00 | 0.00 | 0.00 | 99 | 1013.5 |
| 20260509052735 | 8 | 203 | 0.0 | 0.0 | 0.00 | 0.00 | 0.00 | 99 | 1013.5 |
| 20260509052136 | 8 | 225 | 0.0 | 0.0 | 0.00 | 0.00 | 0.00 | 99 | 1013.5 |
| 20260509051536 | 8 | 225 | 0.0 | 0.0 | 0.00 | 0.00 | 0.00 | 99 | 1013.5 |
| 20260509050939 | 8 | 203 | 0.0 | 0.0 | 0.00 | 0.00 | 0.00 | 99 | 1013.5 |
| 20260509045724 | 8 | 225 | 0.0 | 0.0 | 0.00 | 0.00 | 0.00 | 98 | 1013.5 |
| 20260509045135 | 9 | 225 | 0.0 | 0.0 | 0.00 | 0.00 | 0.00 | 99 | 1013.5 |
| 20260509044542 | 9 | 270 | 0.0 | 0.0 | 0.00 | 0.00 | 0.00 | 99 | 1013.5 |
| 20260509043947 | 9 | 315 | 0.0 | 0.0 | 0.00 | 0.00 | 0.00 | 98 | 1013.5 |
| 20260509043336 | 10 | 293 | 0.0 | 0.0 | 0.00 | 0.00 | 0.00 | 97 | 1013.5 |
| 20260509042740 | 10 | 248 | 0.0 | 0.0 | 0.00 | 0.00 | 0.00 | 97 | 1013.5 |
| 20260509042147 | 10 | 270 | 0.0 | 0.0 | 0.00 | 0.00 | 0.00 | 95 | 1013.5 |
| 20260509041539 | 10 | 248 | 0.0 | 0.0 | 0.00 | 0.00 | 0.00 | 94 | 1013.5 |
| 20260509040310 | 10 | 248 | 0.0 | 0.0 | 0.00 | 0.00 | 0.00 | 94 | 1013.8 |
| 20260509035750 | 10 | 203 | 0.0 | 0.0 | 0.00 | 0.00 | 0.00 | 93 | 1013.5 |
| 20260509035153 | 11 | 225 | 0.0 | 0.0 | 0.00 | 0.00 | 0.00 | 92 | 1013.8 |
| 20260509034542 | 11 | 225 | 0.0 | 0.0 | 0.00 | 0.00 | 0.00 | 91 | 1013.8 |
| 20260509033926 | 11 | 203 | 0.0 | 0.0 | 0.00 | 0.00 | 0.00 | 91 | 1013.8 |
| 20260509033318 | 11 | 203 | 0.0 | 0.0 | 0.00 | 0.00 | 0.00 | 89 | 1013.8 |
| 20260509031510 | 11 | 203 | 0.0 | 0.0 | 0.00 | 0.00 | 0.00 | 87 | 1013.8 |
| 20260509030315 | 12 | 180 | 0.0 | 0.0 | 0.00 | 0.00 | 0.00 | 85 | 1013.8 |
| 20260509025711 | 12 | 270 | 0.0 | 0.0 | 0.00 | 0.00 | 0.00 | 84 | 1013.8 |
| 20260509025140 | 12 | 203 | 0.0 | 3.2 | 0.00 | 0.00 | 0.00 | 84 | 1013.8 |
| 20260509024550 | 12 | 270 | 0.0 | 0.0 | 0.00 | 0.00 | 0.00 | 85 | 1013.8 |
| 20260509023918 | 12 | 203 | 1.6 | 1.6 | 0.00 | 0.00 | 0.00 | 85 | 1014.2 |
| 20260509023313 | 12 | 293 | 0.0 | 0.0 | 0.00 | 0.00 | 0.00 | 85 | 1014.2 |
| 20260509022717 | 12 | 203 | 0.0 | 3.2 | 0.00 | 0.00 | 0.00 | 85 | 1014.2 |
| 20260509021510 | 12 | 225 | 0.0 | 0.0 | 0.00 | 0.00 | 0.00 | 83 | 1014.2 |
| 20260509020909 | 12 | 225 | 0.0 | 0.0 | 0.00 | 0.00 | 0.00 | 80 | 1013.8 |
| 20260509020312 | 13 | 225 | 0.0 | 0.0 | 0.00 | 0.00 | 0.00 | 80 | 1013.8 |
| 20260509015739 | 13 | 225 | 0.0 | 0.0 | 0.00 | 0.00 | 0.00 | 80 | 1013.8 |
| 20260509015127 | 13 | 270 | 0.0 | 0.0 | 0.00 | 0.00 | 0.00 | 81 | 1013.8 |
| 20260509014516 | 13 | 225 | 0.0 | 0.0 | 0.00 | 0.00 | 0.00 | 81 | 1013.8 |
| 20260509013934 | 13 | 180 | 0.0 | 3.2 | 0.00 | 0.00 | 0.00 | 81 | 1013.8 |
| 20260509013344 | 13 | 203 | 1.6 | 3.2 | 0.00 | 0.00 | 0.00 | 80 | 1013.8 |
| 20260509012746 | 13 | 203 | 0.0 | 3.2 | 0.00 | 0.00 | 0.00 | 79 | 1013.5 |
| 20260509012113 | 13 | 180 | 0.0 | 0.0 | 0.00 | 0.00 | 0.00 | 78 | 1013.5 |
| 20260509010930 | 13 | 248 | 0.0 | 4.8 | 0.00 | 0.00 | 0.00 | 74 | 1013.5 |
| 20260509010308 | 13 | 180 | 1.6 | 3.2 | 0.00 | 0.00 | 0.00 | 74 | 1013.5 |
| 20260509005746 | 14 | 203 | 3.2 | 3.2 | 0.00 | 0.00 | 0.00 | 73 | 1013.5 |
| 20260509005138 | 15 | 203 | 0.0 | 0.0 | 0.00 | 0.00 | 0.00 | 70 | 1013.2 |
| 20260509004522 | 15 | 248 | 1.6 | 1.6 | 0.00 | 0.00 | 0.00 | 71 | 1013.5 |
| 20260509003315 | 15 | 203 | 0.0 | 0.0 | 0.00 | 0.00 | 0.00 | 68 | 1013.2 |
| 20260509002713 | 16 | 203 | 0.0 | 0.0 | 0.00 | 0.00 | 0.00 | 65 | 1013.5 |
| 20260509002119 | 16 | 225 | 3.2 | 3.2 | 0.00 | 0.00 | 0.00 | 63 | 1013.2 |
| 20260509001537 | 17 | 203 | 0.0 | 0.0 | 0.00 | 0.00 | 0.00 | 61 | 1013.5 |
| 20260509000941 | 17 | 225 | 1.6 | 3.2 | 0.00 | 0.00 | 0.00 | 57 | 1013.5 |
| 20260509000311 | 18 | 113 | 0.0 | 4.8 | 0.00 | 0.00 | 0.00 | 57 | 1013.5 |
| 20260508235713 | 18 | 225 | 0.0 | 3.2 | 0.00 | 0.00 | 0.00 | 57 | 1013.5 |
| 20260508235117 | 18 | 203 | 1.6 | 4.8 | 0.00 | 0.00 | 0.00 | 55 | 1013.5 |
| 20260508234534 | 19 | 270 | 3.2 | 3.2 | 0.00 | 0.00 | 0.00 | 51 | 1013.5 |
| 20260508233914 | 21 | 225 | 1.6 | 4.8 | 0.00 | 0.00 | 0.00 | 49 | 1013.5 |
| 20260508233309 | 22 | 180 | 6.4 | 6.4 | 0.00 | 0.00 | 0.00 | 43 | 1013.8 |
| 20260508232725 | 23 | 248 | 0.0 | 6.4 | 0.00 | 0.00 | 0.00 | 38 | 1013.8 |
| 20260508232135 | 23 | 225 | 6.4 | 6.4 | 0.00 | 0.00 | 0.00 | 38 | 1013.5 |
| 20260508231513 | 24 | 45 | 1.6 | 6.4 | 0.00 | 0.00 | 0.00 | 38 | 1013.5 |
| 20260508230947 | 24 | 0 | 6.4 | 6.4 | 0.00 | 0.00 | 0.00 | 38 | 1013.5 |
| 20260508230323 | 23 | 0 | 3.2 | 6.4 | 0.00 | 0.00 | 0.00 | 38 | 1013.5 |
| 20260508225749 | 22 | 0 | 0.0 | 3.2 | 0.00 | 0.00 | 0.00 | 40 | 1013.5 |
| 20260508225148 | 23 | 338 | 8.0 | 8.0 | 0.00 | 0.00 | 0.00 | 39 | 1013.5 |
| 20260508224518 | 23 | 315 | 4.8 | 4.8 | 0.00 | 0.00 | 0.00 | 38 | 1013.5 |
| 20260508223947 | 23 | 90 | 6.4 | 6.4 | 0.00 | 0.00 | 0.00 | 39 | 1013.5 |
| 20260508223318 | 23 | 315 | 3.2 | 6.4 | 0.00 | 0.00 | 0.00 | 40 | 1013.5 |
| 20260508222127 | 23 | 315 | 4.8 | 6.4 | 0.00 | 0.00 | 0.00 | 39 | 1013.5 |
| 20260508221541 | 23 | 248 | 4.8 | 4.8 | 0.00 | 0.00 | 0.00 | 41 | 1013.5 |
| 20260508220935 | 23 | 180 | 4.8 | 6.4 | 0.00 | 0.00 | 0.00 | 40 | 1013.5 |
| 20260508220310 | 23 | 68 | 3.2 | 6.4 | 0.00 | 0.00 | 0.00 | 39 | 1013.5 |
| 20260508215732 | 23 | 23 | 4.8 | 8.0 | 0.00 | 0.00 | 0.00 | 38 | 1013.5 |
| 20260508214546 | 23 | 0 | 11.3 | 11.3 | 0.00 | 0.00 | 0.00 | 38 | 1013.5 |
| 20260508213913 | 23 | 338 | 8.0 | 8.0 | 0.00 | 0.00 | 0.00 | 39 | 1013.5 |
| 20260508212116 | 23 | 0 | 11.3 | 11.3 | 0.00 | 0.00 | 0.00 | 40 | 1013.5 |
| 20260508211515 | 23 | 23 | 6.4 | 6.4 | 0.00 | 0.00 | 0.00 | 41 | 1013.5 |
| 20260508210918 | 23 | 23 | 9.7 | 11.3 | 0.00 | 0.00 | 0.00 | 40 | 1013.5 |
| 20260508210319 | 22 | 23 | 4.8 | 8.0 | 0.00 | 0.00 | 0.00 | 41 | 1013.8 |
| 20260508205739 | 23 | 0 | 8.0 | 8.0 | 0.00 | 0.00 | 0.00 | 41 | 1013.8 |
| 20260508205124 | 23 | 248 | 6.4 | 6.4 | 0.00 | 0.00 | 0.00 | 41 | 1013.8 |
| 20260508204551 | 23 | 203 | 3.2 | 4.8 | 0.00 | 0.00 | 0.00 | 40 | 1014.2 |
| 20260508203919 | 23 | 203 | 1.6 | 8.0 | 0.00 | 0.00 | 0.00 | 39 | 1014.2 |
| 20260508203320 | 23 | 203 | 6.4 | 6.4 | 0.00 | 0.00 | 0.00 | 40 | 1014.5 |
| 20260508202734 | 23 | 68 | 4.8 | 8.0 | 0.00 | 0.00 | 0.00 | 41 | 1014.5 |
| 20260508202114 | 23 | 225 | 4.8 | 8.0 | 0.00 | 0.00 | 0.00 | 38 | 1014.5 |
| 20260508201518 | 23 | 0 | 4.8 | 4.8 | 0.00 | 0.00 | 0.00 | 39 | 1014.9 |
| 20260508200949 | 23 | 203 | 3.2 | 11.3 | 0.00 | 0.00 | 0.00 | 39 | 1014.9 |
| 20260508200343 | 23 | 23 | 3.2 | 12.9 | 0.00 | 0.00 | 0.00 | 39 | 1014.9 |
| 20260508195740 | 23 | 90 | 6.4 | 6.4 | 0.00 | 0.00 | 0.00 | 38 | 1015.2 |
| 20260508195133 | 23 | 203 | 6.4 | 11.3 | 0.00 | 0.00 | 0.00 | 40 | 1015.2 |
| 20260508194552 | 23 | 0 | 11.3 | 11.3 | 0.00 | 0.00 | 0.00 | 38 | 1015.2 |
| 20260508193931 | 23 | 68 | 1.6 | 11.3 | 0.00 | 0.00 | 0.00 | 39 | 1015.5 |
| 20260508193322 | 23 | 113 | 6.4 | 6.4 | 0.00 | 0.00 | 0.00 | 41 | 1015.5 |
| 20260508192726 | 23 | 180 | 4.8 | 4.8 | 0.00 | 0.00 | 0.00 | 41 | 1015.5 |
| 20260508192146 | 23 | 315 | 3.2 | 8.0 | 0.00 | 0.00 | 0.00 | 38 | 1015.5 |
| 20260508191549 | 23 | 68 | 3.2 | 4.8 | 0.00 | 0.00 | 0.00 | 41 | 1015.5 |
| 20260508190935 | 23 | 68 | 4.8 | 6.4 | 0.00 | 0.00 | 0.00 | 40 | 1016.2 |
| 20260508190343 | 23 | 203 | 1.6 | 4.8 | 0.00 | 0.00 | 0.00 | 41 | 1016.2 |
| 20260508185114 | 23 | 315 | 1.6 | 6.4 | 0.00 | 0.00 | 0.00 | 38 | 1016.2 |
| 20260508184545 | 23 | 45 | 4.8 | 4.8 | 0.00 | 0.00 | 0.00 | 38 | 1016.2 |
| 20260508183943 | 24 | 23 | 12.9 | 12.9 | 0.00 | 0.00 | 0.00 | 37 | 1016.5 |
| 20260508183338 | 23 | 45 | 3.2 | 8.0 | 0.00 | 0.00 | 0.00 | 38 | 1016.5 |
| 20260508182736 | 23 | 248 | 4.8 | 4.8 | 0.00 | 0.00 | 0.00 | 42 | 1016.5 |
| 20260508181532 | 22 | 113 | 3.2 | 3.2 | 0.00 | 0.00 | 0.00 | 42 | 1016.9 |
| 20260508180921 | 22 | 158 | 1.6 | 12.9 | 0.00 | 0.00 | 0.00 | 43 | 1016.9 |
| 20260508180349 | 22 | 203 | 8.0 | 8.0 | 0.00 | 0.00 | 0.00 | 46 | 1017.2 |
| 20260508175740 | 21 | 45 | 4.8 | 9.7 | 0.00 | 0.00 | 0.00 | 44 | 1017.2 |
| 20260508175143 | 21 | 180 | 6.4 | 6.4 | 0.00 | 0.00 | 0.00 | 45 | 1017.2 |
| 20260508174511 | 21 | 23 | 8.0 | 8.0 | 0.00 | 0.00 | 0.00 | 43 | 1017.2 |
| 20260508173923 | 22 | 338 | 14.5 | 17.7 | 0.00 | 0.00 | 0.00 | 42 | 1017.2 |
| 20260508173320 | 21 | 23 | 9.7 | 9.7 | 0.00 | 0.00 | 0.00 | 45 | 1017.2 |
| 20260508172740 | 22 | 315 | 4.8 | 6.4 | 0.00 | 0.00 | 0.00 | 44 | 1017.2 |
| 20260508172148 | 21 | 315 | 3.2 | 6.4 | 0.00 | 0.00 | 0.00 | 43 | 1017.6 |
| 20260508170940 | 21 | 158 | 4.8 | 9.7 | 0.00 | 0.00 | 0.00 | 44 | 1017.6 |
| 20260508170314 | 22 | 248 | 6.4 | 11.3 | 0.00 | 0.00 | 0.00 | 44 | 1017.9 |
| 20260508165709 | 21 | 158 | 6.4 | 6.4 | 0.00 | 0.00 | 0.00 | 44 | 1017.9 |
| 20260508165120 | 21 | 113 | 4.8 | 6.4 | 0.00 | 0.00 | 0.00 | 46 | 1018.2 |
| 20260508164533 | 21 | 293 | 1.6 | 1.6 | 0.00 | 0.00 | 0.00 | 45 | 1018.2 |
| 20260508163331 | 21 | 0 | 6.4 | 8.0 | 0.00 | 0.00 | 0.00 | 44 | 1018.6 |
| 20260508162723 | 21 | 338 | 4.8 | 8.0 | 0.00 | 0.00 | 0.00 | 42 | 1018.6 |
| 20260508162130 | 21 | 203 | 1.6 | 6.4 | 0.00 | 0.00 | 0.00 | 45 | 1018.6 |
| 20260508161515 | 21 | 23 | 11.3 | 12.9 | 0.00 | 0.00 | 0.00 | 41 | 1018.6 |
| 20260508160931 | 20 | 0 | 4.8 | 8.0 | 0.00 | 0.00 | 0.00 | 43 | 1018.6 |
| 20260508160338 | 20 | 293 | 1.6 | 9.7 | 0.00 | 0.00 | 0.00 | 42 | 1018.6 |
| 20260508155110 | 20 | 45 | 4.8 | 8.0 | 0.00 | 0.00 | 0.00 | 43 | 1018.9 |
| 20260508154521 | 20 | 270 | 3.2 | 4.8 | 0.00 | 0.00 | 0.00 | 43 | 1018.9 |
| 20260508153937 | 20 | 45 | 3.2 | 6.4 | 0.00 | 0.00 | 0.00 | 45 | 1018.9 |
| 20260508153342 | 20 | 90 | 3.2 | 6.4 | 0.00 | 0.00 | 0.00 | 46 | 1018.9 |
| 20260508152746 | 19 | 0 | 3.2 | 6.4 | 0.00 | 0.00 | 0.00 | 48 | 1018.9 |
| 20260508151536 | 20 | 23 | 8.0 | 8.0 | 0.00 | 0.00 | 0.00 | 48 | 1018.9 |
| 20260508150945 | 20 | 23 | 3.2 | 3.2 | 0.00 | 0.00 | 0.00 | 50 | 1018.9 |
| 20260508145746 | 18 | 248 | 3.2 | 4.8 | 0.00 | 0.00 | 0.00 | 53 | 1018.9 |
| 20260508145148 | 18 | 23 | 1.6 | 4.8 | 0.00 | 0.00 | 0.00 | 52 | 1019.3 |
| 20260508143942 | 17 | 203 | 4.8 | 4.8 | 0.00 | 0.00 | 0.00 | 56 | 1019.3 |
| 20260508142727 | 17 | 180 | 4.8 | 6.4 | 0.00 | 0.00 | 0.00 | 58 | 1018.9 |
| 20260508142148 | 16 | 293 | 3.2 | 3.2 | 0.00 | 0.00 | 0.00 | 61 | 1019.3 |
| 20260508141518 | 17 | 225 | 4.8 | 4.8 | 0.00 | 0.00 | 0.00 | 61 | 1019.3 |
| 20260508140935 | 16 | 23 | 4.8 | 6.4 | 0.00 | 0.00 | 0.00 | 62 | 1019.3 |
| 20260508135748 | 16 | 270 | 3.2 | 3.2 | 0.00 | 0.00 | 0.00 | 65 | 1019.6 |
| 20260508135145 | 14 | 225 | 0.0 | 0.0 | 0.00 | 0.00 | 0.00 | 74 | 1019.6 |
| 20260508134522 | 13 | 45 | 0.0 | 0.0 | 0.00 | 0.00 | 0.00 | 74 | 1019.6 |
| 20260508133915 | 13 | 45 | 0.0 | 1.6 | 0.00 | 0.00 | 0.00 | 75 | 1019.6 |
| 20260508133312 | 13 | 90 | 0.0 | 3.2 | 0.00 | 0.00 | 0.00 | 76 | 1019.6 |
| 20260508132726 | 12 | 180 | 0.0 | 1.6 | 0.00 | 0.00 | 0.00 | 77 | 1019.6 |
| 20260508132122 | 11 | 135 | 0.0 | 0.0 | 0.00 | 0.00 | 0.00 | 80 | 1019.6 |
| 20260508130308 | 10 | 338 | 0.0 | 0.0 | 0.00 | 0.00 | 0.00 | 84 | 1019.6 |
| 20260508125126 | 10 | 270 | 0.0 | 1.6 | 0.00 | 0.00 | 0.00 | 90 | 1019.6 |
| 20260508123936 | 8 | 158 | 0.0 | 0.0 | 0.00 | 0.00 | 0.00 | 93 | 1019.9 |